Simultaneous Nadir Overpasses (SNOs) Predictions

Prediction of SNOs between NOAA-20 and NOAA-19 Satellite Orbit:

Table of predicted SNOs for the next 14.0 days since TLE Epoch: 6/8/2024
Index Date (NOAA-20) Time (NOAA-20) Lat,Lon (NOAA-20) SZA (NOAA-20 ) Date (NOAA-19) Time (NOAA-19) Lat,Lon (NOAA-19) SZA (NOAA-19 ) Distance(km) Time Diff (sec)
1 06/09/2024 11:06:12 72.85, 5.07 49.98 06/09/2024 11:05:01 72.84, 3.47 50.07 52.42 71
2 06/09/2024 11:57:03 -73.22, 171.59 129.63 06/09/2024 11:55:56 -73.22, 171.57 129.61 0.64 67
3 06/09/2024 12:47:49 73.22, -21.10 50.38 06/09/2024 12:46:51 73.23, -21.13 50.40 1.69 58
4 06/09/2024 13:38:33 -73.24, 146.19 129.61 06/09/2024 13:37:53 -73.27, 146.19 129.57 3.64 40
5 06/09/2024 14:29:20 73.29, -46.62 50.44 06/09/2024 14:28:48 73.28, -46.51 50.44 3.52 32
6 06/09/2024 15:20:03 -73.25, 120.78 129.60 06/09/2024 15:19:51 -73.27, 120.70 129.58 3.17 12
7 06/09/2024 16:10:50 73.30, -72.02 50.45 06/09/2024 16:10:46 73.28, -72.00 50.43 2.34 4
8 06/09/2024 17:01:34 -73.31, 95.26 129.54 06/09/2024 17:01:48 -73.31, 95.32 129.54 1.84 14
9 06/09/2024 17:52:20 73.31, -97.43 50.46 06/09/2024 17:52:43 73.33, -97.38 50.47 2.26 23
10 06/09/2024 18:43:04 -73.33, 69.86 129.53 06/09/2024 18:43:46 -73.31, 69.83 129.55 2.11 42
11 06/09/2024 19:33:50 73.33,-122.83 50.47 06/09/2024 19:34:41 73.33,-122.87 50.46 1.07 51
12 06/09/2024 20:24:34 -73.34, 44.45 129.52 06/09/2024 20:25:43 -73.36, 44.45 129.52 1.76 69
13 06/09/2024 21:15:23 73.49,-148.58 50.65 06/09/2024 21:16:36 73.47,-148.01 50.58 18.18 73



Historial Predications of SNOs between NOAA-20 and NOAA-19
